Location: Caltech
(34.1382°N, 118.1253°W)
Time: 15:14:00
(UTC-07:00)

KITSAT 1 - Visible Passes

Search period start: 31 October 2014 00:00
Search period end: 09 November 2014 23:00
Orbit: 1314 x 1316 km, 66.1° (Epoch: 30 October)

Date Brightness Start Highest point End Pass type
(mag) Time Alt. Az. Time Alt. Az. Time Alt. Az.
31 Oct 10.8 19:23:30 10° N 19:30:44 35° NE 19:33:04 30° E visible
31 Oct 11.0 21:18:36 10° NW 21:25:07 46° W 21:25:07 46° W visible
01 Nov 10.3 19:39:16 10° NNW 19:47:05 50° ENE 19:49:44 38° ESE visible
01 Nov 11.5 21:35:16 10° NW 21:41:48 31° WSW 21:41:48 31° WSW visible
02 Nov 10.1 18:55:12 10° NNW 19:03:17 74° ENE 19:06:45 38° SE visible
02 Nov 12.1 20:52:30 10° WNW 20:57:48 19° WSW 20:58:51 19° WSW visible
03 Nov 11.2 17:17:00 10° N 17:23:12 23° NE 17:29:21 10° E visible
03 Nov 10.3 19:11:18 10° NNW 19:19:22 76° WSW 19:24:19 26° SSE visible
03 Nov 12.6 21:11:50 10° W 21:13:25 11° W 21:15:01 10° WSW visible
04 Nov 10.8 17:32:34 10° N 17:39:44 34° NE 17:46:51 10° ESE visible
04 Nov 10.9 19:27:37 10° NW 19:35:18 50° WSW 19:42:59 10° S visible
05 Nov 10.4 17:48:19 10° NNW 17:56:06 49° ENE 18:03:50 10° SE visible
05 Nov 11.6 19:44:14 10° NW 19:51:08 32° WSW 19:58:02 10° SSW visible
06 Nov 10.1 18:04:14 10° NNW 18:12:19 72° ENE 18:20:21 10° SE visible
06 Nov 12.3 20:01:25 10° WNW 20:06:52 20° WSW 20:12:20 10° SSW visible
07 Nov 10.3 18:20:19 10° NNW 18:28:24 78° WSW 18:36:26 10° SSE visible
07 Nov 12.8 20:20:19 10° W 20:22:29 11° W 20:24:40 10° WSW visible
08 Nov 11.0 18:36:37 10° NW 18:44:21 52° WSW 18:52:04 10° S visible
09 Nov 11.8 18:53:13 10° NW 19:00:12 34° WSW 19:07:10 10° SSW visible
